Tiempo atmosférico en la estación meteorológica de La Orotava, Cañadas Teide, Santa Cruz de Tenerife (2150 m.)



Fecha
DESCASC
Temp. máxima en grados centígrados (hora)
DESCASC
Temp. mínima en grados centígrados (hora)
DESCASC
Temp. media en grados centígrados
DESCASC
Racha de viento máxima en m/sg (hora)
DESCASC
Velocidad máxima media en intervalos de 10 minutos(hora)
DESCASC
Precipitaciones diarias en mm
DESCASC
Precipitaciones de 00:00 a 06:00 en mm
DESCASC
Precipitaciones de 06:00 a 12:00 en mm
DESCASC
Precipitaciones de 12:00 a 18:00 en mm
DESCASC
Precipitaciones de 18:00 a 24:00 en mm
DESCASC
11-12-2019 16.6 (13:20) 5.5 (23:00) 11.1 9.17 (19:00) 6.67 (19:00) 0 0 0 0 0
08-12-2019 10.8 (14:20) 2.8 (00:00) 6.8 18.06 (17:20) 12.78 (15:00) 0 0 0 0 0
07-12-2019 11.2 (15:50) 1.7 (00:00) 6.4 17.78 (22:20) 12.22 (22:20) 0 0 0 0 0
06-12-2019 7.8 (14:20) 1.5 (00:00) 4.7 21.94 (08:10) 14.72 (08:10) 4 4 0 0 0
05-12-2019 8.4 (00:10) 0.7 (00:00) 4.5 18.89 (23:00) 13.33 (22:20) 2.8 0 0 0 2.8
04-12-2019 16 (14:00) 2.6 (05:50) 9.3 16.39 (15:50) 10 (18:00) 0 0 0 0 0
03-12-2019 17 (11:30) 1.8 (00:00) 9.4 16.39 (00:20) 10 (00:20) 0 0 0 0 0
02-12-2019 18.6 (12:20) 1.4 (00:00) 10 17.22 (17:00) 9.72 (18:00) 0 0 0 0 0
01-12-2019 16.5 (15:00) 1.7 (00:00) 9.1 11.11 (13:00) 5.56 (13:40) 0 0 0 0 0
30-11-2019 17.5 (13:40) 4.2 (00:00) 10.8 8.89 (17:40) 4.44 (17:20) 0 0 0 0 0
29-11-2019 15.2 (12:30) 7.5 (00:00) 11.3 10.28 (17:00) 5.56 (11:30) 0 0 0 0 0
28-11-2019 14.6 (11:30) 4.2 (08:20) 9.4 9.72 (13:30) 6.67 (14:30) -- 0 -- 0 0
27-11-2019 17.5 (13:20) 2 (00:00) 9.8 6.94 (12:40) 5.28 (23:30) 0 0 0 0 0
26-11-2019 17.9 (14:00) 4.4 (00:00) 11.1 8.89 (11:10) 6.39 (15:10) 0 0 0 0 0
25-11-2019 21.4 (13:40) 8.1 (04:50) 14.8 7.78 (11:10) 5.28 (10:40) 0 0 0 0 0
24-11-2019 21.2 (14:20) 5.3 (00:00) 13.3 12.78 (14:20) 8.33 (01:40) 0 0 0 0 0
23-11-2019 17.1 (15:50) 3.4 (00:00) 10.3 10.56 (06:50) 7.22 (11:50) 0 0 0 0 0
22-11-2019 18 (15:10) 1.1 (00:00) 9.6 10.83 (15:40) 6.94 (16:30) 0 0 0 0 0
21-11-2019 17.8 (14:20) 0.8 (00:00) 9.3 18.33 (12:20) 10.28 (12:10) 0 0 0 0 0
20-11-2019 14.7 (13:30) 1.1 (08:10) 7.9 15.56 (14:50) 8.61 (14:00) 0 0 0 0 0
19-11-2019 13.9 (13:40) -0.5 (-00:0) 6.7 11.11 (16:10) 6.11 (16:10) 0 0 0 0 0
18-11-2019 15.5 (12:30) -0.4 (00:00) 7.5 10 (16:50) 7.22 (16:50) 0 0 0 0 0
17-11-2019 15.8 (13:20) 6.1 (00:00) 11 13.61 (14:20) 9.44 (12:10) 0 0 0 0 0
16-11-2019 13.4 (15:00) 3.8 (00:00) 8.6 18.06 (02:10) 10.83 (04:10) 0 0 0 0 0
15-11-2019 15.4 (10:40) 3.8 (00:00) 9.6 16.94 (23:20) 11.11 (06:30) 0 0 0 0 0

Gráficas

Temp. máximas Temp. mínimas Temp. medias Precipitaciones Rachas de viento máximas Velocidades máximas media en intervalos de 10 minutos

Datos horarios

Fecha y hora oficial Temperatura (ºC) Velocidad del viento (km/h) Dirección del viento Racha (km/h) Dirección de racha Precipitación (mm) Presión (hPa) Tendencia (hPa) Humedad (%)
2019-12-14 23:00:00 5.1 4 Norte 6 Nordeste 0 -- -- 10
2019-12-14 22:00:00 4.6 4 Norte 6 Norte 0 -- -- 10
2019-12-14 21:00:00 4 5 Norte 6 Norte 0 -- -- 13
2019-12-14 20:00:00 4.5 0 Calma 5 Norte 0 -- -- 14
2019-12-14 19:00:00 8.6 4 Oeste 12 Sur 0 -- -- 10
2019-12-14 18:00:00 11.6 6 Sur 23 Sur 0 -- -- 11
2019-12-14 17:00:00 15 9 Sudoeste 23 Sudoeste 0 -- -- 14
2019-12-14 16:00:00 15.9 11 Oeste 22 Oeste 0 -- -- 8
2019-12-14 15:00:00 15.9 12 Oeste 26 Oeste 0 -- -- 8
2019-12-14 14:00:00 17 10 Oeste 21 Sudoeste 0 -- -- 9
2019-12-14 13:00:00 16.4 10 Sur 18 Sur 0 -- -- 24
2019-12-14 12:00:00 16.1 8 Sudoeste 15 Sudoeste 0 -- -- 10
2019-12-14 11:00:00 15.7 6 Sudeste 9 Sudeste 0 -- -- 5
2019-12-14 10:00:00 12.8 4 Sudeste 7 Este 0 -- -- 6
2019-12-14 09:00:00 4.6 0 Calma 7 Nordeste 0 -- -- 12
2019-12-14 08:00:00 3.1 5 Nordeste 9 Norte 0 -- -- 18
2019-12-14 07:00:00 3.8 6 Nordeste 10 Nordeste 0 -- -- 32
2019-12-14 06:00:00 3.6 2 Nordeste 17 Este 0 -- -- 33
2019-12-14 05:00:00 1.6 5 Nordeste 23 Este 0 -- -- 35
2019-12-14 04:00:00 6.8 18 Este 23 Este 0 -- -- 29
2019-12-14 03:00:00 6.7 15 Este 24 Este 0 -- -- 19
2019-12-14 02:00:00 2.8 13 Este 19 Este 0 -- -- 11
2019-12-14 01:00:00 3.1 7 Nordeste 15 Norte 0 -- -- 12
2019-12-14 00:00:00 2.2 7 Norte 16 Norte 0 -- -- 16
2019-12-13 23:00:00 1.9 9 Norte 13 Norte 0 -- -- 15
2019-12-13 22:00:00 3.4 5 Norte 14 Norte 0 -- -- 12
2019-12-13 21:00:00 8.2 8 Este 23 Este 0 -- -- 7
2019-12-13 20:00:00 8.9 17 Este 21 Este 0 -- -- 9
2019-12-13 19:00:00 9.3 14 Este 17 Este 0 -- -- 14
2019-12-13 18:00:00 12.2 4 Sur 17 Sudoeste 0 -- -- 17
2019-12-13 17:00:00 16.7 9 Este 17 Este 0 -- -- 4
2019-12-13 16:00:00 17.5 8 Este 18 Nordeste 0 -- -- 4
2019-12-13 15:00:00 17.4 12 Nordeste 26 Nordeste 0 -- -- 6
2019-12-13 14:00:00 17.6 9 Nordeste 27 Este 0 -- -- 6
2019-12-13 13:00:00 16 16 Nordeste 27 Nordeste 0 -- -- 5
2019-12-13 12:00:00 14.9 16 Este 28 Nordeste 0 -- -- 3
2019-12-13 11:00:00 14.9 18 Nordeste 27 Nordeste 0 -- -- 4
2019-12-13 10:00:00 12.8 15 Nordeste 24 Nordeste 0 -- -- 5
2019-12-13 09:00:00 6.9 17 Nordeste 22 Nordeste 0 -- -- 5
2019-12-13 08:00:00 5.3 19 Nordeste 24 Este 0 -- -- 7
2019-12-13 07:00:00 4.8 18 Nordeste 22 Nordeste 0 -- -- 6
2019-12-13 06:00:00 4.2 13 Nordeste 26 Nordeste 0 -- -- 8
2019-12-13 05:00:00 4.8 18 Nordeste 27 Nordeste 0 -- -- 6
2019-12-13 04:00:00 5.4 19 Nordeste 27 Nordeste 0 -- -- 5
2019-12-13 03:00:00 5.3 19 Nordeste 25 Nordeste 0 -- -- 9
2019-12-13 02:00:00 6.1 19 Nordeste 22 Este 0 -- -- 6
2019-12-13 01:00:00 6 20 Este 23 Este 0 -- -- 11
2019-12-13 00:00:00 6.1 17 Nordeste 30 Este 0 -- -- 14
2019-12-12 23:00:00 7 20 Este 30 Este 0 -- -- 12
2019-12-12 22:00:00 6.4 19 Este 27 Este 0 -- -- 11
2019-12-12 21:00:00 6.8 17 Este 27 Este 0 -- -- 10
2019-12-12 20:00:00 7.7 17 Este 29 Este 0 -- -- 13
2019-12-12 19:00:00 7.5 17 Nordeste 31 Nordeste 0 -- -- 35
2019-12-12 18:00:00 9.8 20 Nordeste 36 Nordeste 0 -- -- 34
2019-12-12 17:00:00 12.2 24 Nordeste 35 Nordeste 0 -- -- 18
2019-12-12 16:00:00 14.1 23 Nordeste 31 Nordeste 0 -- -- 14
2019-12-12 15:00:00 15.8 15 Este 30 Nordeste 0 -- -- 29
2019-12-12 14:00:00 15.2 19 Nordeste 32 Este 0 -- -- 22
2019-12-12 13:00:00 15.3 18 Este 31 Este 0 -- -- 23
2019-12-12 12:00:00 13 17 Este 30 Este 0 -- -- 34
2019-12-12 11:00:00 11.9 17 Este 31 Este 0 -- -- 38
2019-12-12 10:00:00 10.6 18 Este 32 Este 0 -- -- 40
2019-12-12 09:00:00 6.2 18 Este 35 Este 0 -- -- 46
2019-12-12 08:00:00 6.4 22 Este 41 Este 0 -- -- 45
2019-12-12 07:00:00 6.1 21 Este 39 Este 0 -- -- 46
2019-12-12 06:00:00 5.9 23 Nordeste 32 Nordeste 0 -- -- 46
2019-12-12 05:00:00 6.2 20 Este 32 Este 0 -- -- 45
2019-12-12 04:00:00 6.5 19 Este 29 Este 0 -- -- 38
2019-12-12 03:00:00 6.7 19 Este 27 Este 0 -- -- 39
2019-12-12 02:00:00 6.7 19 Este 26 Este 0 -- -- 36
2019-12-12 01:00:00 6.4 19 Este 27 Este 0 -- -- 28
2019-12-12 00:00:00 6.9 20 Este 32 Este 0 -- -- 22
2019-12-11 23:00:00 5.5 21 Este 30 Este 0 -- -- 21
2019-12-11 22:00:00 6.1 23 Nordeste 29 Nordeste 0 -- -- 18
2019-12-11 21:00:00 6.1 21 Nordeste 32 Este 0 -- -- 19
2019-12-11 20:00:00 7.4 19 Este 31 Nordeste 0 -- -- 22
2019-12-11 19:00:00 8.6 24 Este 33 Este 0 -- -- 28
2019-12-11 18:00:00 9.9 17 Nordeste 25 Nordeste 0 -- -- 29
2019-12-11 17:00:00 12.8 16 Este 26 Este 0 -- -- 26
2019-12-11 16:00:00 14.7 14 Este 26 Este 0 -- -- 25
2019-12-11 15:00:00 14.6 13 Este 28 Este 0 -- -- 26
2019-12-11 14:00:00 14.9 18 Sudeste 28 Sudeste 0 -- -- 25
2019-12-11 13:00:00 16.2 19 Nordeste 29 Nordeste 0 -- -- 23
2019-12-11 12:00:00 15.5 20 Nordeste 31 Este 0 -- -- 24
2019-12-11 11:00:00 14.6 22 Nordeste 29 Nordeste 0 -- -- 25
2019-12-11 10:00:00 12.9 18 Este 26 Este 0 -- -- 28
2019-12-11 09:00:00 7.5 17 Este 23 Nordeste 0 -- -- 38
2019-12-11 08:00:00 7.5 18 Nordeste 23 Nordeste 0 -- -- 35
2019-12-11 07:00:00 6.8 18 Nordeste 24 Este 0 -- -- 35
2019-12-11 06:00:00 7.7 21 Nordeste 24 Nordeste 0 -- -- 33
2019-12-11 05:00:00 7.6 19 Este 24 Nordeste 0 -- -- 34
2019-12-11 04:00:00 7.1 17 Nordeste 22 Este 0 -- -- 37
2019-12-11 03:00:00 7.4 18 Este 23 Nordeste 0 -- -- 37
2019-12-11 02:00:00 6.7 16 Este 22 Nordeste 0 -- -- 40
2019-12-11 01:00:00 6.7 18 Este 27 Este 0 -- -- 40
2019-12-11 00:00:00 8.3 21 Este 30 Este 0 -- -- 36
2019-12-10 23:00:00 8.5 20 Este 30 Este 0 -- -- 39
2019-12-10 22:00:00 9.3 24 Este 36 Este 0 -- -- 39
2019-12-10 21:00:00 9.3 25 Este 33 Este 0 -- -- 40
2019-12-10 20:00:00 8.7 21 Nordeste 35 Este 0 -- -- 46
2019-12-10 19:00:00 8.8 19 Nordeste 33 Este 0 -- -- 46
2019-12-10 18:00:00 10.3 22 Este 33 Nordeste 0 -- -- 43
2019-12-10 17:00:00 12.8 25 Nordeste 34 Nordeste 0 -- -- 36
2019-12-10 16:00:00 14.4 23 Nordeste 36 Nordeste 0 -- -- 31
2019-12-10 15:00:00 15.4 22 Nordeste 39 Nordeste 0 -- -- 27
2019-12-10 14:00:00 15.7 21 Este 40 Nordeste 0 -- -- 26
2019-12-10 13:00:00 15.4 24 Nordeste 39 Este 0 -- -- 13
2019-12-10 12:00:00 15.9 22 Nordeste 35 Nordeste 0 -- -- 11
2019-12-10 11:00:00 14.7 23 Nordeste 36 Nordeste 0 -- -- 11
2019-12-10 10:00:00 13.1 24 Nordeste 36 Nordeste 0 -- -- 9
2019-12-10 09:00:00 7.8 23 Nordeste 32 Nordeste 0 -- -- 14
2019-12-10 08:00:00 6.5 23 Nordeste 29 Este 0 -- -- 15
2019-12-10 07:00:00 5.6 19 Nordeste 29 Nordeste 0 -- -- 17
2019-12-10 06:00:00 6.2 19 Nordeste 28 Nordeste 0 -- -- 16
2019-12-10 05:00:00 6.5 20 Nordeste 26 Nordeste 0 -- -- 15
2019-12-10 04:00:00 5.8 15 Nordeste 28 Nordeste 0 -- -- 15
2019-12-10 03:00:00 5.9 20 Nordeste 27 Nordeste 0 -- -- 13
2019-12-10 02:00:00 6.4 20 Nordeste 25 Nordeste 0 -- -- 16
2019-12-10 01:00:00 5.3 18 Nordeste 22 Nordeste 0 -- -- 14
2019-12-10 00:00:00 5.3 16 Nordeste 22 Nordeste 0 -- -- 13
2019-12-09 23:00:00 4.8 16 Nordeste 24 Nordeste 0 -- -- 16
2019-12-09 22:00:00 6.6 18 Nordeste 24 Nordeste 0 -- -- 12
2019-12-09 21:00:00 7.7 20 Nordeste 29 Nordeste 0 -- -- 9
2019-12-09 20:00:00 7.2 20 Este 25 Nordeste 0 -- -- 12
2019-12-09 19:00:00 7.2 16 Este 24 Nordeste 0 -- -- 11
2019-12-09 18:00:00 9.8 13 Nordeste 29 Nordeste 0 -- -- 10
2019-12-09 17:00:00 13.1 19 Nordeste 33 Nordeste 0 -- -- 7
2019-12-09 16:00:00 14 18 Este 33 Este 0 -- -- 11
2019-12-09 15:00:00 14.9 17 Este 32 Nordeste 0 -- -- 11
2019-12-09 14:00:00 14.6 18 Este 31 Nordeste 0 -- -- 13
2019-12-09 13:00:00 14.5 18 Este 32 Nordeste 0 -- -- 11
2019-12-09 12:00:00 13.7 22 Este 31 Nordeste 0 -- -- 14
2019-12-09 11:00:00 12.5 24 Nordeste 32 Este 0 -- -- 11
2019-12-09 10:00:00 10.7 20 Nordeste 31 Este 0 -- -- 11
2019-12-09 09:00:00 6 24 Este 32 Este 0 -- -- 13
2019-12-09 08:00:00 4.1 20 Este 23 Nordeste 0 -- -- 18
2019-12-09 07:00:00 4.7 16 Este 26 Este 0 -- -- 17
2019-12-09 06:00:00 5.4 20 Este 30 Este 0 -- -- 23
2019-12-09 05:00:00 5.2 22 Este 29 Este 0 -- -- 25
2019-12-09 04:00:00 5.1 21 Este 34 Este 0 -- -- 32
2019-12-09 03:00:00 5.4 24 Este 35 Este 0 -- -- 33
2019-12-09 02:00:00 5.1 22 Este 39 Este 0 -- -- 31
2019-12-09 01:00:00 4.3 22 Este 43 Este 0 -- -- 34
2019-12-09 00:00:00 4.9 30 Este 42 Nordeste 0 -- -- 39
2019-12-08 23:00:00 4.9 28 Nordeste 44 Este 0 -- -- 41
2019-12-08 22:00:00 3.8 24 Este 50 Nordeste 0 -- -- 55
2019-12-08 21:00:00 5 34 Nordeste 50 Nordeste 0 -- -- 48
2019-12-08 20:00:00 5.1 35 Nordeste 50 Nordeste 0 -- -- 50
2019-12-08 19:00:00 5.4 36 Nordeste 58 Nordeste 0 -- -- 48
2019-12-08 18:00:00 6.2 36 Nordeste 65 Nordeste 0 -- -- 49
2019-12-08 17:00:00 7.7 42 Nordeste 62 Nordeste 0 -- -- 46
2019-12-08 16:00:00 8.5 45 Nordeste 60 Nordeste 0 -- -- 45
2019-12-08 15:00:00 9.3 46 Nordeste 62 Nordeste 0 -- -- 41
2019-12-08 14:00:00 10.6 39 Nordeste 60 Nordeste 0 -- -- 32
2019-12-08 13:00:00 10.4 39 Nordeste 55 Nordeste 0 -- -- 34
2019-12-08 12:00:00 9.8 31 Nordeste 50 Nordeste 0 -- -- 39
2019-12-08 11:00:00 10.1 24 Nordeste 53 Nordeste 0 -- -- 37
2019-12-08 10:00:00 8.6 28 Nordeste 46 Nordeste 0 -- -- 30
2019-12-08 09:00:00 6.2 35 Nordeste 54 Nordeste 0 -- -- 27
2019-12-08 08:00:00 6.2 36 Nordeste 52 Nordeste 0 -- -- 25
2019-12-08 07:00:00 4.7 27 Este 41 Nordeste 0 -- -- 31
2019-12-08 06:00:00 5.3 24 Este 55 Este 0 -- -- 30
2019-12-08 05:00:00 3.8 27 Este 39 Nordeste 0 -- -- 31
2019-12-08 04:00:00 3.1 24 Nordeste 39 Este 0 -- -- 35
2019-12-08 03:00:00 3.5 27 Nordeste 47 Nordeste 0 -- -- 38
2019-12-08 02:00:00 5.1 31 Nordeste 45 Nordeste 0 -- -- 29
2019-12-08 01:00:00 3.2 28 Nordeste 39 Nordeste 0 -- -- 46
2019-12-08 00:00:00 4.7 28 Nordeste 48 Nordeste 0 -- -- 35
2019-12-07 23:00:00 6.1 35 Nordeste 64 Este 0 -- -- 28
2019-12-07 22:00:00 5.4 42 Este 59 Este 0 -- -- 37
2019-12-07 21:00:00 2.5 32 Nordeste 46 Nordeste 0 -- -- 80
2019-12-07 20:00:00 5.2 31 Nordeste 47 Nordeste 0 -- -- 33
2019-12-07 19:00:00 5.1 32 Nordeste 47 Este 0 -- -- 38
2019-12-07 18:00:00 5.2 31 Nordeste 53 Nordeste 0 -- -- 55
2019-12-07 17:00:00 7.3 29 Este 47 Este 0 -- -- 49
2019-12-07 16:00:00 10.8 30 Nordeste 46 Nordeste 0 -- -- 23
2019-12-07 15:00:00 8.6 29 Este 51 Este 0 -- -- 57
2019-12-07 14:00:00 8.4 30 Este 54 Este 0 -- -- 63
2019-12-07 13:00:00 8.2 28 Este 49 Nordeste 0 -- -- 63
2019-12-07 12:00:00 6.9 31 Este 55 Este 0 -- -- 75
2019-12-07 11:00:00 4.9 33 Nordeste 54 Este 0 -- -- 89
2019-12-07 10:00:00 4.1 23 Nordeste 41 Nordeste 0 -- -- 92
2019-12-07 09:00:00 2.6 22 Nordeste 38 Este 0 -- -- 93
2019-12-07 08:00:00 2 25 Este 39 Este 0 -- -- 87
2019-12-07 07:00:00 2.6 23 Este 52 Este 0 -- -- 94
2019-12-07 06:00:00 3.7 28 Este 59 Este 0 -- -- 86
2019-12-07 05:00:00 2.9 32 Nordeste 61 Nordeste 0 -- -- 82
2019-12-07 04:00:00 2.4 25 Este 56 Este 0 -- -- 88
2019-12-07 03:00:00 2.4 33 Este 51 Este 0 -- -- 91
2019-12-07 02:00:00 3.3 31 Nordeste 51 Este 0 -- -- 84
2019-12-07 01:00:00 3.1 28 Nordeste 51 Nordeste 0 -- -- 91
2019-12-07 00:00:00 3.3 33 Nordeste 53 Nordeste 0 -- -- 82
2019-12-06 23:00:00 3.4 35 Nordeste 62 Nordeste 0 -- -- 78
2019-12-06 22:00:00 3.8 35 Nordeste 66 Nordeste 0 -- -- 75
2019-12-06 21:00:00 3.2 34 Nordeste 57 Nordeste 0 -- -- 76
2019-12-06 20:00:00 2.7 41 Nordeste 58 Nordeste 0 -- -- 78
2019-12-06 19:00:00 2.9 30 Nordeste 51 Nordeste 0 -- -- 78
2019-12-06 18:00:00 3.8 32 Nordeste 62 Nordeste 0 -- -- 80
2019-12-06 17:00:00 4.1 40 Nordeste 59 Nordeste 0 -- -- 73
2019-12-06 16:00:00 5.4 41 Nordeste 62 Nordeste 0 -- -- 67
2019-12-06 15:00:00 7.5 36 Nordeste 58 Norte 0 -- -- 69
2019-12-06 14:00:00 6.2 41 Nordeste 57 Nordeste 0 -- -- 79
2019-12-06 13:00:00 6.7 44 Nordeste 62 Nordeste 0 -- -- 74
2019-12-06 12:00:00 5.6 42 Nordeste 66 Nordeste 0 -- -- 87
2019-12-06 11:00:00 5.4 45 Nordeste 67 Nordeste 0 -- -- 74
2019-12-06 10:00:00 4.7 46 Nordeste 68 Nordeste 0 -- -- 68
2019-12-06 09:00:00 3.1 43 Nordeste 79 Nordeste 0 -- -- 82
2019-12-06 08:00:00 2.5 46 Nordeste 69 Nordeste 0 -- -- 81
2019-12-06 07:00:00 1.8 47 Nordeste 68 Nordeste 0 -- -- 79
2019-12-06 06:00:00 2.3 42 Nordeste 69 Nordeste 0 -- -- 91
2019-12-06 05:00:00 1.9 45 Nordeste 67 Nordeste 0 -- -- 76
2019-12-06 04:00:00 2.2 39 Norte 74 Nordeste 0 -- -- 90
2019-12-06 03:00:00 2.7 44 Nordeste 76 Norte 0.4 -- -- 83
2019-12-06 02:00:00 2.2 42 Nordeste 71 Norte 1.2 -- -- 91
2019-12-06 01:00:00 2.4 40 Nordeste 68 Nordeste 2.4 -- -- 91
2019-12-06 00:00:00 1.9 39 Nordeste 68 Norte 1.4 -- -- 94
2019-12-05 23:00:00 2.4 47 Norte 68 Norte 0.2 -- -- 88
2019-12-05 22:00:00 2 36 Norte 55 Norte 0.8 -- -- 85
2019-12-05 21:00:00 1.8 27 Nordeste 55 Nordeste 0.2 -- -- 91
2019-12-05 20:00:00 2.4 31 Nordeste 62 Nordeste 0.2 -- -- 86
2019-12-05 19:00:00 2.2 41 Nordeste 60 Nordeste 0 -- -- 57
2019-12-05 18:00:00 2.5 37 Nordeste 62 Norte 0 -- -- 70
2019-12-05 17:00:00 2.8 39 Nordeste 61 Nordeste 0 -- -- 76
2019-12-05 16:00:00 3.1 42 Nordeste 64 Nordeste 0 -- -- 76
2019-12-05 15:00:00 5.1 22 Nordeste 41 Norte 0 -- -- 76
2019-12-05 14:00:00 6.8 10 Sudeste 43 Nordeste 0 -- -- 55
2019-12-05 13:00:00 4.4 23 Norte 52 Nordeste 0 -- -- 71
2019-12-05 12:00:00 6.5 32 Nordeste 56 Nordeste 0 -- -- 65
2019-12-05 11:00:00 6.2 26 Norte 58 Norte 0 -- -- 71
2019-12-05 10:00:00 3.7 8 Norte 36 Noroeste 0 -- -- 73
2019-12-05 09:00:00 1.9 14 Sudeste 40 Nordeste 0 -- -- 81
2019-12-05 08:00:00 1.2 18 Nordeste 52 Nordeste 0 -- -- 88
2019-12-05 07:00:00 2 35 Nordeste 62 Nordeste 0 -- -- 82
2019-12-05 06:00:00 3.4 25 Nordeste 63 Nordeste 0 -- -- 61
2019-12-05 05:00:00 7.6 33 Norte 58 Norte 0 -- -- 10
2019-12-05 04:00:00 7.8 18 Noroeste 44 Noroeste 0 -- -- 17
2019-12-05 03:00:00 6.3 17 Oeste 40 Noroeste 0 -- -- 34
2019-12-05 02:00:00 5.9 15 Sudeste 36 Sur 0 -- -- 68
2019-12-05 01:00:00 7.2 13 Sudoeste 40 Noroeste 0 -- -- 73
2019-12-05 00:00:00 8.3 19 Noroeste 58 Noroeste 0 -- -- 38
2019-12-04 23:00:00 7.9 24 Noroeste 54 Noroeste 0 -- -- 61
2019-12-04 22:00:00 6.9 12 Este 39 Noroeste 0 -- -- 75
2019-12-04 21:00:00 7 13 Nordeste 27 Norte 0 -- -- 55
2019-12-04 20:00:00 6.6 20 Este 53 Este 0 -- -- 65
2019-12-04 19:00:00 7.6 22 Este 48 Norte 0 -- -- 58
2019-12-04 18:00:00 11.7 36 Norte 55 Norte 0 -- -- 18
2019-12-04 17:00:00 15.1 23 Norte 39 Noroeste 0 -- -- 16
2019-12-04 16:00:00 11.8 32 Este 59 Este 0 -- -- 22
2019-12-04 15:00:00 15 23 Este 52 Norte 0 -- -- 15
2019-12-04 14:00:00 16 25 Sur 38 Sur 0 -- -- 19
2019-12-04 13:00:00 14.1 14 Sudoeste 22 Sudoeste 0 -- -- 43
2019-12-04 12:00:00 13.1 13 Sudoeste 25 Sur 0 -- -- 40
2019-12-04 11:00:00 13.4 12 Sudoeste 22 Sudoeste 0 -- -- 22
2019-12-04 10:00:00 12.7 8 Sur 22 Sudeste 0 -- -- 18
2019-12-04 09:00:00 5.1 6 Nordeste 14 Norte 0 -- -- 24
2019-12-04 08:00:00 3.5 12 Nordeste 20 Nordeste 0 -- -- 21
2019-12-04 07:00:00 4.1 6 Nordeste 14 Nordeste 0 -- -- 21
2019-12-04 06:00:00 2.7 8 Nordeste 13 Norte 0 -- -- 33
2019-12-04 05:00:00 4.8 5 Nordeste 13 Norte 0 -- -- 32
2019-12-04 04:00:00 4.8 3 Norte 11 Norte 0 -- -- 36
2019-12-04 03:00:00 7.5 5 Sur 28 Este 0 -- -- 28
2019-12-04 02:00:00 11.9 19 Este 34 Este 0 -- -- 18
2019-12-04 01:00:00 8 4 Sudeste 19 Norte 0 -- -- 25
2019-12-04 00:00:00 4.3 6 Nordeste 24 Norte 0 -- -- 41
2019-12-03 23:00:00 2.9 20 Este 30 Este 0 -- -- 61
2019-12-03 22:00:00 1.8 8 Nordeste 19 Norte 0 -- -- 51
2019-12-03 21:00:00 3.8 3 Sur 12 Sudoeste 0 -- -- 66
2019-12-03 20:00:00 8.6 11 Sudeste 26 Sudeste 0 -- -- 30
2019-12-03 19:00:00 8.9 12 Sudeste 27 Este 0 -- -- 35
2019-12-03 18:00:00 7.8 6 Sur 24 Sudoeste 0 -- -- 52
2019-12-03 17:00:00 11.4 12 Sudoeste 23 Sudoeste 0 -- -- 44
2019-12-03 16:00:00 14.3 10 Sur 27 Sur 0 -- -- 26
2019-12-03 15:00:00 14.7 12 Sudoeste 31 Sudoeste 0 -- -- 24
2019-12-03 14:00:00 14.4 19 Sudoeste 33 Sudoeste 0 -- -- 25
2019-12-03 13:00:00 14.7 10 Sur 33 Sudoeste 0 -- -- 26
2019-12-03 12:00:00 15.6 21 Sudoeste 30 Sudoeste 0 -- -- 22
2019-12-03 11:00:00 15.1 14 Sudoeste 27 Sudoeste 0 -- -- 19
2019-12-03 10:00:00 14.3 6 Sudeste 16 Oeste 0 -- -- 14
2019-12-03 09:00:00 10.7 8 Oeste 30 Norte 0 -- -- 12
2019-12-03 08:00:00 7.5 17 Este 30 Este 0 -- -- 28
2019-12-03 07:00:00 8.8 15 Este 33 Este 0 -- -- 17
2019-12-03 06:00:00 9.2 12 Sudeste 34 Este 0 -- -- 15
2019-12-03 05:00:00 11.5 7 Nordeste 26 Noroeste 0 -- -- 10
2019-12-03 04:00:00 12.3 12 Norte 43 Norte 0 -- -- 10
2019-12-03 03:00:00 13 17 Norte 42 Norte 0 -- -- 10
2019-12-03 02:00:00 13.7 27 Norte 50 Norte 0 -- -- 12
2019-12-03 01:00:00 13.9 25 Norte 59 Norte 0 -- -- 12
2019-12-03 00:00:00 13.9 30 Norte 54 Norte 0 -- -- 10
2019-12-02 23:00:00 13.7 21 Noroeste 52 Noroeste 0 -- -- 9
2019-12-02 22:00:00 13.4 21 Noroeste 49 Noroeste 0 -- -- 9
2019-12-02 21:00:00 13.6 23 Norte 44 Norte 0 -- -- 9
2019-12-02 20:00:00 13.5 28 Norte 57 Norte 0 -- -- 10
2019-12-02 19:00:00 13.2 33 Noroeste 53 Noroeste 0 -- -- 11
2019-12-02 18:00:00 13.9 35 Norte 55 Norte 0 -- -- 10
2019-12-02 17:00:00 15.5 31 Noroeste 62 Noroeste 0 -- -- 8
2019-12-02 16:00:00 15.9 25 Noroeste 53 Noroeste 0 -- -- 5
2019-12-02 15:00:00 16.8 27 Noroeste 51 Noroeste 0 -- -- 5
2019-12-02 14:00:00 17.7 24 Noroeste 48 Noroeste 0 -- -- 4
2019-12-02 13:00:00 17.8 24 Noroeste 42 Noroeste 0 -- -- 4
2019-12-02 12:00:00 18.1 16 Noroeste 37 Norte 0 -- -- 3
2019-12-02 11:00:00 16.8 10 Este 26 Sudeste 0 -- -- 10
2019-12-02 10:00:00 14.1 8 Sudeste 17 Sudeste 0 -- -- 18
2019-12-02 09:00:00 6.8 5 Nordeste 15 Norte 0 -- -- 25
2019-12-02 08:00:00 3.3 6 Norte 20 Este 0 -- -- 27
2019-12-02 07:00:00 2.1 6 Nordeste 15 Nordeste 0 -- -- 36
2019-12-02 06:00:00 2.5 9 Nordeste 15 Norte 0 -- -- 35
2019-12-02 05:00:00 1.9 8 Norte 12 Norte 0 -- -- 50
2019-12-02 04:00:00 4.3 6 Nordeste 19 Este 0 -- -- 46
2019-12-02 03:00:00 4.2 8 Nordeste 23 Este 0 -- -- 48
2019-12-02 02:00:00 5.3 15 Nordeste 23 Este 0 -- -- 39
2019-12-02 01:00:00 4.4 6 Nordeste 11 Norte 0 -- -- 40
2019-12-02 00:00:00 4.6 4 Nordeste 18 Este 0 -- -- 42
2019-12-01 23:00:00 5.2 5 Nordeste 13 Nordeste 0 -- -- 37
2019-12-01 22:00:00 5.8 5 Nordeste 14 Norte 0 -- -- 40
2019-12-01 21:00:00 7 6 Norte 14 Norte 0 -- -- 39
2019-12-01 20:00:00 8 6 Este 20 Nordeste 0 -- -- 37
2019-12-01 19:00:00 9.3 4 Este 16 Este 0 -- -- 38
2019-12-01 18:00:00 12.4 4 Oeste 14 Sur 0 -- -- 59
2019-12-01 17:00:00 14.3 12 Sur 23 Sur 0 -- -- 55
2019-12-01 16:00:00 15.8 14 Sur 22 Sur 0 -- -- 48
2019-12-01 15:00:00 16.5 13 Sudoeste 32 Sudoeste 0 -- -- 37
2019-12-01 14:00:00 15.2 13 Oeste 37 Sur 0 -- -- 27
2019-12-01 13:00:00 14.9 20 Sur 40 Sudoeste 0 -- -- 31
2019-12-01 12:00:00 14.2 10 Oeste 19 Sudoeste 0 -- -- 32
2019-12-01 11:00:00 14.2 9 Sur 16 Sur 0 -- -- 32
2019-12-01 10:00:00 13.2 5 Sur 8 Sudeste 0 -- -- 35
2019-12-01 09:00:00 5.6 0 Calma 6 Nordeste 0 -- -- 47
2019-12-01 08:00:00 2.4 7 Nordeste 8 Nordeste 0 -- -- 49
2019-12-01 07:00:00 2.1 7 Norte 10 Nordeste 0 -- -- 52
2019-12-01 06:00:00 2.8 2 Este 8 Norte 0 -- -- 51
2019-12-01 05:00:00 2.1 9 Nordeste 12 Norte 0 -- -- 57
2019-12-01 04:00:00 3.4 9 Nordeste 14 Nordeste 0 -- -- 58
2019-12-01 03:00:00 4.6 3 Nordeste 8 Norte 0 -- -- 56
2019-12-01 02:00:00 4.9 2 Nordeste 12 Norte 0 -- -- 56
2019-12-01 01:00:00 6.5 12 Este 16 Este 0 -- -- 51
2019-12-01 00:00:00 7.3 13 Este 15 Este 0 -- -- 49
2019-11-30 23:00:00 7.7 13 Este 21 Este 0 -- -- 48
2019-11-30 22:00:00 8.2 12 Nordeste 22 Este 0 -- -- 47
2019-11-30 21:00:00 8.8 12 Nordeste 22 Nordeste 0 -- -- 45
2019-11-30 20:00:00 9 13 Nordeste 18 Nordeste 0 -- -- 44
2019-11-30 19:00:00 10.1 11 Nordeste 21 Nordeste 0 -- -- 41
2019-11-30 18:00:00 12.1 10 Nordeste 32 Este 0 -- -- 44
2019-11-30 17:00:00 15.3 11 Nordeste 21 Este 0 -- -- 34
2019-11-30 16:00:00 15.9 7 Oeste 23 Sur 0 -- -- 35
2019-11-30 15:00:00 16.7 7 Oeste 23 Sudoeste 0 -- -- 36
2019-11-30 14:00:00 17.1 8 Sur 25 Sudeste 0 -- -- 29
2019-11-30 13:00:00 16.2 15 Sur 23 Sur 0 -- -- 29
2019-11-30 12:00:00 15.7 13 Este 22 Este 0 -- -- 30
2019-11-30 11:00:00 15.5 11 Este 21 Este 0 -- -- 31
2019-11-30 10:00:00 13.7 6 Este 15 Este 0 -- -- 35
2019-11-30 09:00:00 9 10 Este 14 Este 0 -- -- 44
2019-11-30 08:00:00 5.2 3 Nordeste 10 Nordeste 0 -- -- 55
2019-11-30 07:00:00 4.9 7 Nordeste 13 Nordeste 0 -- -- 53
2019-11-30 06:00:00 4.8 10 Nordeste 14 Este 0 -- -- 55
2019-11-30 05:00:00 5.8 10 Nordeste 15 Nordeste 0 -- -- 51
2019-11-30 04:00:00 6.8 10 Nordeste 14 Nordeste 0 -- -- 48
2019-11-30 03:00:00 7.4 8 Nordeste 14 Nordeste 0 -- -- 46
2019-11-30 02:00:00 7.2 8 Nordeste 14 Nordeste 0 -- -- 48
2019-11-30 01:00:00 7.9 6 Nordeste 18 Este 0 -- -- 47
2019-11-30 00:00:00 8.6 8 Nordeste 31 Este 0 -- -- 47
2019-11-29 23:00:00 9 14 Este 27 Este 0 -- -- 48
2019-11-29 22:00:00 9.6 11 Este 29 Sudeste 0 -- -- 46
2019-11-29 21:00:00 9 8 Nordeste 17 Este 0 -- -- 47
2019-11-29 20:00:00 8.8 11 Nordeste 22 Nordeste 0 -- -- 48
2019-11-29 19:00:00 9.9 9 Nordeste 27 Este 0 -- -- 45
2019-11-29 18:00:00 11 16 Este 32 Este 0 -- -- 42
2019-11-29 17:00:00 12.7 19 Este 37 Este 0 -- -- 39
2019-11-29 16:00:00 14.4 14 Sudeste 34 Este 0 -- -- 36
2019-11-29 15:00:00 14.4 18 Este 35 Este 0 -- -- 35
2019-11-29 14:00:00 14.6 19 Este 33 Este 0 -- -- 35
2019-11-29 13:00:00 15 13 Nordeste 32 Este 0 -- -- 34
2019-11-29 12:00:00 14.7 13 Este 33 Este 0 -- -- 34
2019-11-29 11:00:00 14.9 6 Nordeste 24 Este 0 -- -- 35
2019-11-29 10:00:00 13.2 10 Nordeste 33 Este 0 -- -- 39
2019-11-29 09:00:00 9 17 Nordeste 33 Nordeste 0 -- -- 50
2019-11-29 08:00:00 7.6 14 Nordeste 27 Norte 0 -- -- 53
2019-11-29 07:00:00 8.1 12 Nordeste 29 Nordeste 0 -- -- 52
2019-11-29 06:00:00 8.8 13 Nordeste 27 Este 0 -- -- 50
2019-11-29 05:00:00 8 11 Nordeste 26 Nordeste 0 -- -- 53
2019-11-29 04:00:00 8.9 13 Nordeste 25 Nordeste 0 -- -- 50
2019-11-29 03:00:00 9 9 Nordeste 36 Nordeste 0 -- -- 49
2019-11-29 02:00:00 8.9 13 Nordeste 30 Norte 0 -- -- 50
2019-11-29 01:00:00 8.9 11 Nordeste 24 Norte 0 -- -- 48
2019-11-29 00:00:00 9.5 10 Norte 21 Oeste 0 -- -- 48
2019-11-28 23:00:00 9.4 8 Norte 23 Noroeste 0 -- -- 46
2019-11-28 22:00:00 8.8 6 Norte 18 Norte 0 -- -- 49
2019-11-28 21:00:00 8.4 8 Nordeste 27 Nordeste 0 -- -- 53
2019-11-28 20:00:00 8.9 13 Nordeste 26 Nordeste 0 -- -- 52
2019-11-28 19:00:00 9.1 11 Norte 21 Nordeste 0 -- -- 48
2019-11-28 18:00:00 9.3 5 Oeste 31 Sudeste 0 -- -- 48
2019-11-28 17:00:00 10 19 Sur 31 Sudeste 0 -- -- 48
2019-11-28 16:00:00 10.7 21 Sur 33 Sur 0 -- -- 44
2019-11-28 15:00:00 12.1 20 Sudeste 34 Sur 0 -- -- 44
2019-11-28 14:00:00 13.7 21 Sur 35 Sur 0 -- -- 38
2019-11-28 13:00:00 12.9 22 Sudeste 34 Sur 0 -- -- 32
2019-11-28 12:00:00 14.2 19 Sur 30 Sur 0 -- -- 26
2019-11-28 11:00:00 12.2 5 Oeste 14 Oeste 0 -- -- 23
2019-11-28 10:00:00 -- 4 Nordeste -- -- -- -- -- --
2019-11-28 09:00:00 6.1 8 Este 13 Nordeste 0 -- -- 28
2019-11-28 08:00:00 5.2 15 Este 21 Este 0 -- -- 36
2019-11-28 07:00:00 5.2 14 Nordeste 18 Nordeste 0 -- -- 30
2019-11-28 06:00:00 5.3 10 Nordeste 17 Nordeste 0 -- -- 30
2019-11-28 05:00:00 6.7 15 Nordeste 20 Nordeste 0 -- -- 27
2019-11-28 04:00:00 6.2 14 Este 23 Nordeste 0 -- -- 30
2019-11-28 03:00:00 6.8 20 Nordeste 22 Nordeste 0 -- -- 32
2019-11-28 02:00:00 6.7 18 Este 23 Nordeste 0 -- -- 35
2019-11-28 01:00:00 6.8 18 Nordeste 23 Nordeste 0 -- -- 36
2019-11-28 00:00:00 6.6 19 Nordeste 23 Nordeste 0 -- -- 37
2019-11-27 23:00:00 7.2 17 Este 22 Nordeste 0 -- -- 35
2019-11-27 22:00:00 7.3 16 Este 21 Este 0 -- -- 36
2019-11-27 21:00:00 7.2 9 Este 18 Este 0 -- -- 39
2019-11-27 20:00:00 8.3 15 Este 20 Este 0 -- -- 37
2019-11-27 19:00:00 9.1 14 Nordeste 19 Nordeste 0 -- -- 37
2019-11-27 18:00:00 11.7 9 Este 22 Sudeste 0 -- -- 34
2019-11-27 17:00:00 14.6 9 Este 19 Sudeste 0 -- -- 38
2019-11-27 16:00:00 16.3 7 Oeste 24 Sudoeste 0 -- -- 45
2019-11-27 15:00:00 16.6 6 Norte 20 Este 0 -- -- 45
2019-11-27 14:00:00 17 12 Este 23 Este 0 -- -- 31
2019-11-27 13:00:00 15.7 16 Este 25 Este 0 -- -- 31
2019-11-27 05:00:00 -- -- -- -- -- -- -- -- --
2019-11-27 04:00:00 2.7 8 Norte 14 Nordeste 0 -- -- 59
2019-11-27 03:00:00 5.1 12 Este 21 Nordeste 0 -- -- 54
2019-11-27 02:00:00 3.9 11 Nordeste 22 Este 0 -- -- 57
2019-11-27 01:00:00 7.2 15 Nordeste 19 Nordeste 0 -- -- 44
2019-11-27 00:00:00 5.5 2 Este 11 Este 0 -- -- 44
2019-11-26 23:00:00 5.3 6 Norte 9 Norte 0 -- -- 44
2019-11-26 22:00:00 6 6 Norte 14 Este 0 -- -- 48
2019-11-26 21:00:00 7.6 4 Sudeste 19 Este 0 -- -- 52
2019-11-26 20:00:00 8.9 14 Este 17 Este 0 -- -- 49
2019-11-26 19:00:00 9.5 12 Este 17 Este 0 -- -- 51
2019-11-26 18:00:00 11.7 12 Este 16 Nordeste 0 -- -- 44
2019-11-26 17:00:00 14.4 12 Este 25 Este 0 -- -- 37
2019-11-26 16:00:00 16.5 12 Este 32 Este 0 -- -- 35
2019-11-26 15:00:00 16.4 20 Este 29 Este 0 -- -- 33
2019-11-26 14:00:00 17.9 16 Este 24 Este 0 -- -- 33
2019-11-26 13:00:00 17.5 12 Nordeste 26 Este 0 -- -- 28
2019-11-26 12:00:00 16.6 14 Este 32 Este 0 -- -- 34
2019-11-26 11:00:00 16 15 Este 26 Este 0 -- -- 33
2019-11-26 10:00:00 14.6 17 Este 27 Este 0 -- -- 35
2019-11-26 09:00:00 10.2 16 Nordeste 30 Nordeste 0 -- -- 40
2019-11-26 08:00:00 8.8 17 Nordeste 25 Nordeste 0 -- -- 42
2019-11-26 07:00:00 8.6 15 Nordeste 21 Nordeste 0 -- -- 39
2019-11-26 06:00:00 7.3 11 Nordeste 19 Nordeste 0 -- -- 38
2019-11-26 05:00:00 8.8 14 Este 22 Nordeste 0 -- -- 35
2019-11-26 04:00:00 10.2 13 Nordeste 21 Nordeste 0 -- -- 32
2019-11-26 03:00:00 9.4 10 Nordeste 18 Nordeste 0 -- -- 35
2019-11-26 02:00:00 9.9 14 Nordeste 22 Nordeste 0 -- -- 34
2019-11-26 01:00:00 11.1 12 Nordeste 24 Norte 0 -- -- 32
2019-11-26 00:00:00 11.5 14 Nordeste 23 Nordeste 0 -- -- 33
2019-11-25 23:00:00 10.8 14 Nordeste 24 Nordeste 0 -- -- 34
2019-11-25 22:00:00 10.5 16 Nordeste 21 Este 0 -- -- 34
2019-11-25 21:00:00 10.5 11 Nordeste 17 Norte 0 -- -- 30
2019-11-25 20:00:00 11.6 13 Nordeste 18 Nordeste 0 -- -- 28
2019-11-25 19:00:00 12.6 16 Nordeste 19 Nordeste 0 -- -- 25
2019-11-25 18:00:00 15 12 Nordeste 20 Nordeste 0 -- -- 20
2019-11-25 17:00:00 17.3 11 Este 18 Este 0 -- -- 17
2019-11-25 16:00:00 17.2 10 Este 23 Nordeste 0 -- -- 15
2019-11-25 15:00:00 19.4 13 Este 26 Este 0 -- -- 8
2019-11-25 14:00:00 20.9 13 Este 27 Nordeste 0 -- -- 7
2019-11-25 13:00:00 19.2 14 Sudeste 26 Sudeste 0 -- -- 6
2019-11-25 12:00:00 20.8 12 Este 28 Nordeste 0 -- -- 4
2019-11-25 11:00:00 18.8 19 Nordeste 27 Este 0 -- -- 7
2019-11-25 10:00:00 18.8 13 Nordeste 19 Este 0 -- -- 7
2019-11-25 09:00:00 11 16 Este 18 Nordeste 0 -- -- 8
2019-11-25 08:00:00 10.3 17 Nordeste 20 Este 0 -- -- 7
2019-11-25 07:00:00 9 14 Este 19 Este 0 -- -- 9
2019-11-25 06:00:00 8.6 15 Este 18 Este 0 -- -- 9
2019-11-25 05:00:00 8.2 13 Este 20 Este 0 -- -- 10
2019-11-25 04:00:00 9.6 18 Este 22 Este 0 -- -- 10
2019-11-25 03:00:00 9.6 18 Este 21 Este 0 -- -- 10
2019-11-25 02:00:00 9.4 14 Este 18 Este 0 -- -- 10
2019-11-25 01:00:00 9.8 14 Este 18 Este 0 -- -- 10
2019-11-25 00:00:00 10.1 15 Este 18 Nordeste 0 -- -- 9
2019-11-24 23:00:00 11.1 14 Este 19 Este 0 -- -- 8
2019-11-24 22:00:00 11.3 15 Este 19 Este 0 -- -- 8
2019-11-24 21:00:00 11.1 15 Este 19 Este 0 -- -- 8
2019-11-24 20:00:00 12 15 Este 21 Este 0 -- -- 7
2019-11-24 19:00:00 12.1 14 Este 18 Este 0 -- -- 12
2019-11-24 18:00:00 13.8 2 Sudoeste 11 Sudoeste 0 -- -- 23
2019-11-24 17:00:00 17.3 6 Sudoeste 18 Sudoeste 0 -- -- 20
2019-11-24 16:00:00 19.2 9 Sudoeste 22 Sudoeste 0 -- -- 19
2019-11-24 15:00:00 18 14 Oeste 46 Este 0 -- -- 21
2019-11-24 14:00:00 19.6 8 Sudeste 26 Este 0 -- -- 13
2019-11-24 13:00:00 18.6 9 Sudoeste 22 Sudoeste 0 -- -- 25
2019-11-24 12:00:00 19.6 8 Este 23 Este 0 -- -- 20
2019-11-24 11:00:00 17.2 14 Este 26 Este 0 -- -- 15
2019-11-24 10:00:00 15.6 17 Este 24 Este 0 -- -- 12
2019-11-24 09:00:00 11 15 Este 24 Este 0 -- -- 16
2019-11-24 08:00:00 9.4 13 Este 26 Este 0 -- -- 22
2019-11-24 07:00:00 8.6 15 Este 32 Este 0 -- -- 33
2019-11-24 06:00:00 7.7 13 Este 31 Este 0 -- -- 41
2019-11-24 05:00:00 9.1 22 Este 37 Este 0 -- -- 51
2019-11-24 04:00:00 9.2 13 Este 36 Este 0 -- -- 45
2019-11-24 03:00:00 9.3 22 Este 36 Este 0 -- -- 54
2019-11-24 02:00:00 10.1 25 Este 40 Este 0 -- -- 46
2019-11-24 01:00:00 10.9 21 Este 36 Este 0 -- -- 28
2019-11-24 00:00:00 11.2 15 Este 27 Este 0 -- -- 11
2019-11-23 23:00:00 10.3 19 Este 31 Este 0 -- -- 15
2019-11-23 22:00:00 10.3 22 Este 30 Este 0 -- -- 9
2019-11-23 21:00:00 10.3 12 Este 27 Este 0 -- -- 11
2019-11-23 20:00:00 8.2 8 Nordeste 25 Este 0 -- -- 16
2019-11-23 19:00:00 11.5 17 Este 30 Este 0 -- -- 15
2019-11-23 18:00:00 12.7 18 Este 26 Este 0 -- -- 19
2019-11-23 17:00:00 15.2 18 Este 30 Este 0 -- -- 32
2019-11-23 16:00:00 16.4 20 Este 30 Este 0 -- -- 35
2019-11-23 15:00:00 16.1 22 Este 35 Este 0 -- -- 44
2019-11-23 14:00:00 16.3 21 Este 35 Este 0 -- -- 41
2019-11-23 13:00:00 15.6 26 Este 37 Este 0 -- -- 41
2019-11-23 12:00:00 15 26 Este 36 Este 0 -- -- 45
2019-11-23 11:00:00 14.5 23 Este 30 Este 0 -- -- 46
2019-11-23 10:00:00 14 16 Este 32 Este 0 -- -- 47
2019-11-23 09:00:00 9.8 15 Este 26 Este 0 -- -- 61
2019-11-23 08:00:00 9.1 17 Este 25 Este 0 -- -- 62
2019-11-23 07:00:00 9.7 20 Este 38 Este 0 -- -- 54
2019-11-23 06:00:00 6.7 8 Norte 17 Norte 0 -- -- 51
2019-11-23 05:00:00 5.6 5 Nordeste 31 Este 0 -- -- 47
2019-11-23 04:00:00 6 8 Norte 14 Norte 0 -- -- 43
2019-11-23 03:00:00 3.7 7 Nordeste 11 Norte 0 -- -- 58
2019-11-23 02:00:00 4.9 6 Norte 14 Este 0 -- -- 55
2019-11-23 01:00:00 4.9 8 Norte 14 Norte 0 -- -- 50
2019-11-23 00:00:00 6.6 8 Nordeste 14 Norte 0 -- -- 46
2019-11-22 23:00:00 5.7 8 Nordeste 15 Norte 0 -- -- 49
2019-11-22 22:00:00 7.2 4 Noroeste 22 Este 0 -- -- 43
2019-11-22 21:00:00 7.3 3 Este 6 Nordeste 0 -- -- 54
2019-11-22 20:00:00 8.7 2 Este 9 Sur 0 -- -- 50
2019-11-22 19:00:00 10.6 12 Este 22 Sudeste 0 -- -- 48
2019-11-22 18:00:00 11.9 21 Este 34 Este 0 -- -- 38
2019-11-22 17:00:00 14.8 14 Sudeste 35 Este 0 -- -- 47
2019-11-22 16:00:00 15.6 20 Sudeste 39 Este 0 -- -- 38
2019-11-22 15:00:00 17.1 13 Sur 26 Sur 0 -- -- 42
2019-11-22 14:00:00 17 11 Sudoeste 30 Sur 0 -- -- 36
2019-11-22 13:00:00 16.9 15 Sudoeste 26 Este 0 -- -- 31
2019-11-22 12:00:00 16 16 Sur 33 Sur 0 -- -- 34
2019-11-22 11:00:00 15.2 14 Sudeste 28 Sudeste 0 -- -- 21
2019-11-22 10:00:00 14.2 10 Este 21 Este 0 -- -- 22
2019-11-22 09:00:00 7.1 6 Nordeste 15 Norte 0 -- -- 34
2019-11-22 08:00:00 2.9 8 Norte 13 Nordeste 0 -- -- 44
2019-11-22 07:00:00 2.8 4 Nordeste 15 Norte 0 -- -- 46
2019-11-22 06:00:00 1.3 8 Norte 13 Norte 0 -- -- 56
2019-11-22 05:00:00 2.3 3 Nordeste 14 Norte 0 -- -- 57
2019-11-22 04:00:00 3.4 4 Nordeste 17 Norte 0 -- -- 66
2019-11-22 03:00:00 3.9 9 Nordeste 21 Nordeste 0 -- -- 66
2019-11-22 02:00:00 4.9 12 Nordeste 22 Este 0 -- -- 81
2019-11-22 01:00:00 5.6 15 Este 27 Nordeste 0 -- -- 79
2019-11-22 00:00:00 5.6 17 Nordeste 24 Este 0 -- -- 90
2019-11-21 23:00:00 5.8 16 Este 28 Este 0 -- -- 92
2019-11-21 22:00:00 6.6 8 Nordeste 22 Nordeste 0 -- -- 75
2019-11-21 21:00:00 6.9 7 Norte 16 Norte 0 -- -- 75
2019-11-21 20:00:00 7.8 10 Este 18 Este 0 -- -- 75
2019-11-21 19:00:00 8.6 12 Nordeste 15 Nordeste 0 -- -- 71
2019-11-21 18:00:00 11.2 8 Sur 30 Sudoeste 0 -- -- 57
2019-11-21 17:00:00 14.5 11 Sudoeste 26 Sur 0 -- -- 47
2019-11-21 16:00:00 16.1 15 Sur 39 Sudoeste 0 -- -- 41
2019-11-21 15:00:00 17 24 Sur 53 Sudoeste 0 -- -- 41
2019-11-21 14:00:00 16.7 27 Sudoeste 51 Sudoeste 0 -- -- 41
2019-11-21 13:00:00 16.3 30 Sudoeste 66 Sudoeste 0 -- -- 46
2019-11-21 12:00:00 15.5 30 Sudoeste 57 Sur 0 -- -- 46
2019-11-21 11:00:00 14.4 26 Sudoeste 45 Sudoeste 0 -- -- 45
2019-11-21 10:00:00 13.9 6 Noroeste 24 Sur 0 -- -- 40
2019-11-21 09:00:00 6.6 5 Noroeste 13 Norte 0 -- -- 39
2019-11-21 08:00:00 4.1 6 Norte 32 Sudoeste 0 -- -- 49
2019-11-21 07:00:00 -- -- -- -- -- -- -- -- --
2019-11-21 06:00:00 -- -- -- -- -- -- -- -- --
2019-11-21 05:00:00 -- -- -- -- -- -- -- -- --
2019-11-21 04:00:00 -- -- -- -- -- -- -- -- --
2019-11-21 03:00:00 -- -- -- -- -- -- -- -- --
2019-11-21 02:00:00 -- -- -- -- -- -- -- -- --
2019-11-21 01:00:00 -- -- -- -- -- -- -- -- --
2019-11-21 00:00:00 -- -- -- -- -- -- -- -- --
2019-11-20 23:00:00 -- -- -- -- -- -- -- -- --
2019-11-20 22:00:00 -- -- -- -- -- -- -- -- --
2019-11-20 21:00:00 -- -- -- -- -- -- -- -- --
2019-11-20 20:00:00 -- -- -- -- -- -- -- -- --
2019-11-20 19:00:00 -- -- -- -- -- -- -- -- --
2019-11-20 18:00:00 9.1 13 Sudoeste 42 Sudoeste 0 -- -- 78
2019-11-20 17:00:00 11 25 Sur 47 Sudoeste 0 -- -- 72
2019-11-20 16:00:00 11.1 29 Sur 51 Sur 0 -- -- 71
2019-11-20 15:00:00 13.6 26 Sudoeste 56 Sur 0 -- -- 52
2019-11-20 14:00:00 13.9 31 Sudoeste 43 Sudoeste 0 -- -- 55
2019-11-20 13:00:00 14.1 20 Sur 46 Sudoeste 0 -- -- 40
2019-11-20 12:00:00 13.9 15 Sur 28 Sudoeste 0 -- -- 41
2019-11-20 11:00:00 13.6 8 Sur 14 Sudoeste 0 -- -- 30
2019-11-20 10:00:00 11.7 6 Sur 11 Sudeste 0 -- -- 27
2019-11-20 09:00:00 5 3 Norte 9 Norte 0 -- -- 40
2019-11-20 08:00:00 1.2 4 Norte 13 Norte 0 -- -- 59
2019-11-20 07:00:00 2.1 6 Norte 17 Norte 0 -- -- 57
2019-11-20 06:00:00 3.7 3 Sudeste 17 Este 0 -- -- 47
2019-11-20 05:00:00 2.8 8 Nordeste 18 Norte 0 -- -- 50
2019-11-20 04:00:00 2.1 5 Noroeste 13 Norte 0 -- -- 43
2019-11-20 03:00:00 5.5 4 Noroeste 17 Oeste 0 -- -- 31
2019-11-20 02:00:00 5.2 6 Sudoeste 19 Sudoeste 0 -- -- 35
2019-11-20 01:00:00 1.6 6 Norte 14 Nordeste 0 -- -- 67
2019-11-20 00:00:00 2.3 8 Norte 15 Nordeste 0 -- -- 65
2019-11-19 23:00:00 2.8 6 Nordeste 16 Este 0 -- -- 55
2019-11-19 22:00:00 3.9 9 Nordeste 16 Este 0 -- -- 41
2019-11-19 21:00:00 5.2 10 Este 21 Este 0 -- -- 36
2019-11-19 20:00:00 5.6 5 Sudeste 13 Sur 0 -- -- 36
2019-11-19 19:00:00 6.1 3 Sudeste 21 Sur 0 -- -- 38
2019-11-19 18:00:00 8.5 9 Sur 29 Sur 0 -- -- 40
2019-11-19 17:00:00 10.8 13 Sur 40 Sudoeste 0 -- -- 46
2019-11-19 16:00:00 11.2 20 Sur 37 Sudoeste 0 -- -- 51
2019-11-19 15:00:00 12.4 18 Sur 34 Sur 0 -- -- 46
2019-11-19 14:00:00 12.6 12 Oeste 26 Sudoeste 0 -- -- 52
2019-11-19 13:00:00 13.1 13 Sudoeste 29 Sudoeste 0 -- -- 36
2019-11-19 12:00:00 12.8 9 Sudoeste 21 Oeste 0 -- -- 31
2019-11-19 11:00:00 12.2 10 Este 21 Este 0 -- -- 28
2019-11-19 10:00:00 10.2 15 Este 21 Este 0 -- -- 29
2019-11-19 09:00:00 4.8 11 Este 17 Este 0 -- -- 34
2019-11-19 08:00:00 1.2 3 Nordeste 13 Norte 0 -- -- 42
2019-11-19 07:00:00 0.1 3 Nordeste 12 Norte 0 -- -- 42
2019-11-19 06:00:00 0.1 10 Nordeste 15 Norte 0 -- -- 45
2019-11-19 05:00:00 0 8 Norte 13 Norte 0 -- -- 49
2019-11-19 04:00:00 1.3 8 Norte 13 Norte 0 -- -- 41
2019-11-19 03:00:00 1 10 Norte 14 Norte 0 -- -- 47
2019-11-19 02:00:00 2 12 Norte 22 Este 0 -- -- 46
2019-11-19 01:00:00 4.2 4 Norte 28 Este 0 -- -- 40
2019-11-19 00:00:00 7.6 17 Este 28 Este 0 -- -- 34
2019-11-18 23:00:00 7.9 14 Este 33 Este 0 -- -- 27
2019-11-18 22:00:00 8.1 20 Este 36 Este 0 -- -- 20
2019-11-18 21:00:00 8.2 18 Este 28 Este 0 -- -- 15
2019-11-18 20:00:00 8.3 22 Este 32 Este 0 -- -- 19
2019-11-18 19:00:00 8.9 23 Este 31 Este 0 -- -- 14
2019-11-18 18:00:00 10.5 19 Este 32 Este 0 -- -- 14
2019-11-18 17:00:00 12.5 25 Este 36 Este 0 -- -- 9
2019-11-18 16:00:00 14.2 16 Sudeste 35 Este 0 -- -- 15
2019-11-18 15:00:00 14.8 19 Este 34 Este 0 -- -- 14
2019-11-18 14:00:00 14.7 12 Sudeste 27 Este 0 -- -- 20
2019-11-18 13:00:00 14.6 12 Sudeste 24 Este 0 -- -- 18
2019-11-18 12:00:00 15 6 Sudoeste 17 Sur 0 -- -- 21
2019-11-18 11:00:00 13.3 7 Sur 13 Sur 0 -- -- 21
2019-11-18 10:00:00 10.9 9 Sudeste 14 Este 0 -- -- 23
2019-11-18 09:00:00 4.6 0 Calma 8 Norte 0 -- -- 34
2019-11-18 08:00:00 0.5 5 Norte 11 Norte 0 -- -- 47
2019-11-18 07:00:00 0.6 0 Calma 12 Norte 0 -- -- 49
2019-11-18 06:00:00 0.5 4 Norte 12 Norte 0 -- -- 49
2019-11-18 05:00:00 0.6 7 Nordeste 22 Nordeste 0 -- -- 49
2019-11-18 04:00:00 5 17 Este 22 Este 0 -- -- 40
2019-11-18 03:00:00 4 8 Nordeste 13 Este 0 -- -- 44
2019-11-18 02:00:00 4.2 12 Nordeste 19 Este 0 -- -- 44
2019-11-18 01:00:00 5.2 13 Este 34 Este 0 -- -- 43
2019-11-18 00:00:00 6.3 20 Este 39 Este 0 -- -- 41
2019-11-17 23:00:00 7.1 24 Este 35 Este 0 -- -- 39
2019-11-17 22:00:00 7.2 21 Este 37 Este 0 -- -- 40
2019-11-17 21:00:00 8 24 Este 34 Este 0 -- -- 35
2019-11-17 20:00:00 7.9 21 Este 44 Este 0 -- -- 34
2019-11-17 19:00:00 8.4 24 Este 37 Este 0 -- -- 34
2019-11-17 18:00:00 9.8 25 Este 43 Nordeste 0 -- -- 30
2019-11-17 17:00:00 12.4 28 Nordeste 46 Este 0 -- -- 25
2019-11-17 16:00:00 13.6 28 Este 46 Este 0 -- -- 22
2019-11-17 15:00:00 14.3 24 Sudeste 49 Este 0 -- -- 22
2019-11-17 14:00:00 14.1 33 Este 48 Este 0 -- -- 22
2019-11-17 13:00:00 14.9 31 Nordeste 48 Este 0 -- -- 21
2019-11-17 12:00:00 14 31 Este 48 Este 0 -- -- 23
2019-11-17 11:00:00 13.5 28 Este 46 Este 0 -- -- 25
2019-11-17 10:00:00 11.5 28 Este 44 Este 0 -- -- 26
2019-11-17 09:00:00 7.3 32 Este 43 Este 0 -- -- 40
2019-11-17 08:00:00 7 26 Este 42 Este 0 -- -- 40
2019-11-17 07:00:00 6.4 29 Este 44 Este 0 -- -- 43
2019-11-17 06:00:00 6.6 22 Este 35 Este 0 -- -- 42
2019-11-17 05:00:00 7.2 24 Este 36 Este 0 -- -- 41
2019-11-17 04:00:00 7.5 25 Este 36 Este 0 -- -- 35
2019-11-17 03:00:00 7.8 26 Este 39 Este 0 -- -- 20
2019-11-17 02:00:00 7.7 28 Este 41 Este 0 -- -- 26
2019-11-17 01:00:00 8.1 25 Este 42 Este 0 -- -- 25
2019-11-17 00:00:00 7.8 27 Este 42 Este 0 -- -- 29
2019-11-16 23:00:00 8 26 Este 47 Este 0 -- -- 33
2019-11-16 22:00:00 7.3 24 Este 40 Este 0 -- -- 36
2019-11-16 21:00:00 7.8 29 Este 48 Este 0 -- -- 37
2019-11-16 20:00:00 7.7 27 Este 46 Nordeste 0 -- -- 37
2019-11-16 19:00:00 7.8 27 Este 50 Este 0 -- -- 37
2019-11-16 18:00:00 9.3 33 Nordeste 54 Nordeste 0 -- -- 33
2019-11-16 17:00:00 10.9 37 Nordeste 58 Nordeste 0 -- -- 31
2019-11-16 16:00:00 11.9 35 Nordeste 51 Nordeste 0 -- -- 30
2019-11-16 15:00:00 13.4 23 Nordeste 46 Nordeste 0 -- -- 33
2019-11-16 14:00:00 12.4 30 Nordeste 44 Nordeste 0 -- -- 34
2019-11-16 13:00:00 11.7 27 Este 48 Este 0 -- -- 33
2019-11-16 12:00:00 10.3 32 Este 52 Este 0 -- -- 30
2019-11-16 11:00:00 12.2 27 Nordeste 47 Nordeste 0 -- -- 26
2019-11-16 10:00:00 9.3 24 Este 47 Este 0 -- -- 40
2019-11-16 09:00:00 6.5 30 Este 46 Este 0 -- -- 47
2019-11-16 08:00:00 3.8 31 Nordeste 48 Este 0 -- -- 78
2019-11-16 07:00:00 6.3 31 Sudeste 57 Sudeste 0 -- -- 52
2019-11-16 06:00:00 6.9 31 Nordeste 59 Este 0 -- -- 45
2019-11-16 05:00:00 7.6 33 Este 58 Este 0 -- -- 42
2019-11-16 04:00:00 5.5 30 Este 52 Este 0 -- -- 65
2019-11-16 03:00:00 6.5 31 Nordeste 65 Este 0 -- -- 56
2019-11-16 02:00:00 6.8 33 Nordeste 64 Este 0 -- -- 52
2019-11-16 01:00:00 6.3 26 Este 63 Este 0 -- -- 60
2019-11-16 00:00:00 7.6 30 Este 61 Sudeste 0 -- -- 46
2019-11-15 23:00:00 7.6 24 Sudeste 43 Este 0 -- -- 46
2019-11-15 22:00:00 6.2 21 Este 60 Nordeste 0 -- -- 46
2019-11-15 21:00:00 8.7 23 Nordeste 57 Norte 0 -- -- 29
2019-11-15 20:00:00 8.5 21 Este 47 Este 0 -- -- 29
2019-11-15 19:00:00 7 19 Este 30 Este 0 -- -- 28
2019-11-15 18:00:00 8.2 19 Este 44 Este 0 -- -- 38
2019-11-15 17:00:00 10.5 23 Sudeste 39 Sudeste 0 -- -- 43
2019-11-15 16:00:00 11.3 14 Sudoeste 25 Sudoeste 0 -- -- 64
2019-11-15 15:00:00 13.2 8 Sudoeste 39 Este 0 -- -- 60
2019-11-15 14:00:00 13.2 9 Sudoeste 44 Sudeste 0 -- -- 56
2019-11-15 13:00:00 13 15 Sudoeste 27 Sudoeste 0 -- -- 55
2019-11-15 12:00:00 14.1 13 Sudoeste 23 Sudeste 0 -- -- 41
2019-11-15 11:00:00 15.4 11 Este 28 Sudeste 0 -- -- 28
2019-11-15 10:00:00 13.4 9 Oeste 44 Este 0 -- -- 24
2019-11-15 09:00:00 7.4 29 Este 51 Este 0 -- -- 46
2019-11-15 08:00:00 6.8 32 Este 49 Este 0 -- -- 53
2019-11-15 07:00:00 5.6 32 Este 54 Este 0 -- -- 72
2019-11-15 06:00:00 7.8 27 Este 40 Nordeste 0 -- -- 30
2019-11-15 05:00:00 6.3 30 Este 45 Este 0 -- -- 35
2019-11-15 04:00:00 8 22 Este 35 Este 0 -- -- 14
2019-11-15 03:00:00 7.1 24 Este 41 Este 0 -- -- 18
2019-11-15 02:00:00 8.3 31 Este 49 Nordeste 0 -- -- 13
2019-11-15 01:00:00 7.2 27 Este 43 Nordeste 0 -- -- 25
2019-11-15 00:00:00 6.7 28 Este 38 Este 0 -- -- 43